Location: USNO
(38.9242°N, 77.0663°W)
Time: 05:45:58
(UTC-04:00)

Envisat - Pass Details

Date: 07 October 2017
Orbit: 764 x 766 km, 98.2° (Epoch: 22 October)

Event Time Altitude Azimuth Distance (km) Brightness Sun altitude
Exits shadow 21:18:23 54° 301° (WNW) 932 3.6 -31.0°
Drops below altitude 10° 21:22:37 10° 340° (NNW) 2,309 5.9 -31.8°
Sets 21:24:58 0° 344° (NNW) 3,239 6.7 -32.2°
